When you browse on this site, cookies collect data to enhance your experience and personalize the content and advertising you see.
Visit our Privacy Policy to learn more. By continuing to use the site, you agree to this use of cookies and data.
  • In Romania
  • List of Countries
  • For 7 days
  • Water Temperature
  • Satellite Maps
  • Weather Map
  • Weather Widgets
  • user-avatar
    Login

    Hourly Weather Achisu

    Today, 24 April, Wednesday

    Time Temperature Precipitation Wind Pressure Humidity
    00:00 +7°C° 0 mm 5 mps 752 mmHg 59%
    01:00 +7°C° 0 mm 5 mps 752 mmHg 58%
    02:00 +7°C° 0 mm 5 mps 752 mmHg 56%
    03:00 +8°C° 0 mm 6 mps 751 mmHg 51%
    04:00 +8°C° 0 mm 5 mps 751 mmHg 50%
    05:00 +8°C° 0 mm 5 mps 751 mmHg 49%
    06:00 +8°C° 0 mm 4 mps 751 mmHg 48%
    07:00 +11°C° 0 mm 4 mps 751 mmHg 44%
    08:00 +13°C° 0 mm 4 mps 751 mmHg 40%
    09:00 +14°C° 0 mm 3 mps 751 mmHg 36%
    10:00 +15°C° 0 mm 4 mps 751 mmHg 36%
    11:00 +15°C° 0 mm 4 mps 751 mmHg 36%
    12:00 +16°C° 0 mm 5 mps 751 mmHg 36%
    13:00 +17°C° 0.1 mm 4 mps 751 mmHg 38%
    14:00 +16°C° 0.1 mm 3 mps 750 mmHg 40%
    15:00 +16°C° 0.1 mm 2 mps 750 mmHg 42%
    16:00 +16°C° 0.1 mm 2 mps 750 mmHg 45%
    17:00 +15°C° 0.1 mm 2 mps 750 mmHg 49%
    18:00 +15°C° 0.1 mm 2 mps 750 mmHg 52%
    19:00 +13°C° 0 mm 3 mps 750 mmHg 54%
    20:00 +12°C° 0 mm 3 mps 750 mmHg 55%
    21:00 +11°C° 0 mm 3 mps 750 mmHg 57%
    22:00 +11°C° 0 mm 3 mps 750 mmHg 57%
    23:00 +11°C° 0 mm 4 mps 750 mmHg 56%

    Tomorrow, 25 April, Thursday

    Time Temperature Precipitation Wind Pressure Humidity
    00:00 +10°C° 0 mm 4 mps 750 mmHg 56%
    01:00 +10°C° 0 mm 4 mps 751 mmHg 55%
    02:00 +10°C° 0 mm 3 mps 751 mmHg 54%
    03:00 +10°C° 0 mm 3 mps 751 mmHg 52%
    04:00 +10°C° 0 mm 3 mps 751 mmHg 52%
    05:00 +10°C° 0 mm 3 mps 751 mmHg 52%
    06:00 +11°C° 0 mm 3 mps 751 mmHg 51%
    07:00 +12°C° 0 mm 3 mps 751 mmHg 51%
    08:00 +13°C° 0 mm 4 mps 751 mmHg 51%
    09:00 +14°C° 0 mm 4 mps 751 mmHg 51%
    10:00 +14°C° 0.1 mm 4 mps 751 mmHg 52%
    11:00 +14°C° 0.1 mm 4 mps 751 mmHg 54%
    12:00 +15°C° 0.1 mm 4 mps 751 mmHg 56%
    13:00 +15°C° 0.3 mm 4 mps 751 mmHg 58%
    14:00 +16°C° 0.3 mm 3 mps 751 mmHg 59%
    15:00 +16°C° 0.3 mm 3 mps 751 mmHg 60%
    16:00 +14°C° 0.4 mm 3 mps 751 mmHg 64%
    17:00 +14°C° 0.4 mm 2 mps 751 mmHg 67%
    18:00 +14°C° 0.4 mm 1 mps 751 mmHg 71%
    19:00 +14°C° 0.1 mm 2 mps 751 mmHg 71%
    20:00 +13°C° 0.1 mm 2 mps 751 mmHg 72%
    21:00 +13°C° 0.1 mm 2 mps 752 mmHg 73%
    22:00 +13°C° 0 mm 2 mps 752 mmHg 72%
    23:00 +12°C° 0 mm 2 mps 751 mmHg 72%

    Day after tomorrow, 26 April, Friday

    Time Temperature Precipitation Wind Pressure Humidity
    00:00 +11°C° 0 mm 3 mps 751 mmHg 72%
    01:00 +11°C° 0 mm 3 mps 751 mmHg 71%
    02:00 +10°C° 0 mm 3 mps 751 mmHg 70%
    03:00 +10°C° 0 mm 3 mps 751 mmHg 68%
    04:00 +10°C° 0 mm 2 mps 751 mmHg 66%
    05:00 +12°C° 0 mm 2 mps 751 mmHg 64%
    06:00 +12°C° 0 mm 2 mps 751 mmHg 62%
    07:00 +14°C° 0 mm 2 mps 751 mmHg 57%
    08:00 +15°C° 0 mm 2 mps 750 mmHg 52%
    09:00 +17°C° 0 mm 2 mps 750 mmHg 47%
    10:00 +17°C° 0 mm 3 mps 750 mmHg 47%
    11:00 +18°C° 0 mm 4 mps 750 mmHg 47%
    12:00 +19°C° 0 mm 5 mps 750 mmHg 47%
    13:00 +19°C° 0 mm 5 mps 749 mmHg 48%
    14:00 +17°C° 0 mm 5 mps 749 mmHg 50%
    15:00 +17°C° 0 mm 6 mps 749 mmHg 51%
    16:00 +16°C° 0 mm 5 mps 749 mmHg 54%
    17:00 +15°C° 0 mm 5 mps 748 mmHg 58%
    18:00 +15°C° 0 mm 5 mps 748 mmHg 61%
    19:00 +14°C° 0 mm 4 mps 749 mmHg 64%
    20:00 +13°C° 0 mm 4 mps 749 mmHg 66%
    21:00 +12°C° 0 mm 3 mps 749 mmHg 69%
    22:00 +12°C° 0 mm 3 mps 749 mmHg 69%
    23:00 +12°C° 0 mm 3 mps 749 mmHg 68%

    27 April, Saturday

    Time Temperature Precipitation Wind Pressure Humidity
    00:00 +11°C° 0 mm 3 mps 749 mmHg 67%
    01:00 +11°C° 0 mm 3 mps 748 mmHg 66%
    02:00 +11°C° 0 mm 3 mps 748 mmHg 64%
    03:00 +11°C° 0 mm 3 mps 748 mmHg 63%
    04:00 +12°C° 0 mm 2 mps 748 mmHg 61%
    05:00 +12°C° 0 mm 2 mps 748 mmHg 60%
    06:00 +13°C° 0 mm 2 mps 748 mmHg 59%
    07:00 +13°C° 0 mm 3 mps 748 mmHg 55%
    08:00 +16°C° 0 mm 3 mps 748 mmHg 50%
    09:00 +17°C° 0 mm 4 mps 747 mmHg 46%
    10:00 +18°C° 0 mm 4 mps 747 mmHg 46%
    11:00 +17°C° 0 mm 5 mps 747 mmHg 45%
    12:00 +17°C° 0 mm 5 mps 747 mmHg 45%
    13:00 +17°C° 0 mm 5 mps 746 mmHg 46%
    14:00 +17°C° 0 mm 5 mps 746 mmHg 47%
    15:00 +17°C° 0 mm 5 mps 745 mmHg 48%
    16:00 +17°C° 0 mm 4 mps 745 mmHg 53%
    17:00 +15°C° 0 mm 4 mps 745 mmHg 58%
    18:00 +14°C° 0 mm 4 mps 745 mmHg 63%
    19:00 +13°C° 0 mm 4 mps 745 mmHg 64%
    20:00 +13°C° 0 mm 3 mps 745 mmHg 66%
    21:00 +12°C° 0 mm 3 mps 745 mmHg 67%
    22:00 +12°C° 0 mm 3 mps 745 mmHg 66%
    23:00 +12°C° 0 mm 3 mps 744 mmHg 65%

    28 April, Sunday

    Time Temperature Precipitation Wind Pressure Humidity
    00:00 +12°C° 0 mm 3 mps 744 mmHg 64%
    01:00 +12°C° 0 mm 3 mps 744 mmHg 63%
    02:00 +11°C° 0 mm 3 mps 743 mmHg 61%
    03:00 +12°C° 0 mm 2 mps 743 mmHg 60%
    04:00 +13°C° 0 mm 2 mps 743 mmHg 59%
    05:00 +13°C° 0 mm 2 mps 743 mmHg 58%
    06:00 +13°C° 0 mm 2 mps 743 mmHg 58%
    07:00 +15°C° 0 mm 2 mps 742 mmHg 54%
    08:00 +16°C° 0 mm 2 mps 742 mmHg 51%
    09:00 +18°C° 0 mm 2 mps 742 mmHg 47%
    10:00 +18°C° 0 mm 2 mps 742 mmHg 49%
    11:00 +18°C° 0 mm 3 mps 742 mmHg 51%
    12:00 +19°C° 0 mm 3 mps 741 mmHg 52%
    13:00 +19°C° 0 mm 2 mps 741 mmHg 53%
    14:00 +19°C° 0 mm 2 mps 741 mmHg 54%
    15:00 +19°C° 0 mm 2 mps 741 mmHg 56%
    16:00 +18°C° 0 mm 2 mps 740 mmHg 59%
    17:00 +18°C° 0 mm 1 mps 740 mmHg 63%
    18:00 +16°C° 0 mm 0 mps 740 mmHg 66%
    19:00 +15°C° 0 mm 0 mps 741 mmHg 67%
    20:00 +15°C° 0 mm 0 mps 741 mmHg 68%
    21:00 +15°C° 0 mm 1 mps 741 mmHg 69%
    22:00 +15°C° 0 mm 1 mps 741 mmHg 68%
    23:00 +15°C° 0 mm 1 mps 741 mmHg 68%

    29 April, Monday

    Time Temperature Precipitation Wind Pressure Humidity
    00:00 +14°C° 0 mm 1 mps 741 mmHg 67%
    01:00 +14°C° 0 mm 1 mps 741 mmHg 67%
    02:00 +14°C° 0 mm 1 mps 740 mmHg 66%
    03:00 +14°C° 0 mm 1 mps 740 mmHg 66%
    04:00 +14°C° 0 mm 1 mps 740 mmHg 64%
    05:00 +15°C° 0 mm 1 mps 741 mmHg 62%
    06:00 +15°C° 0 mm 1 mps 741 mmHg 61%
    07:00 +18°C° 0 mm 1 mps 741 mmHg 56%
    08:00 +19°C° 0 mm 1 mps 741 mmHg 51%
    09:00 +21°C° 0 mm 1 mps 741 mmHg 46%
    10:00 +21°C° 0 mm 2 mps 741 mmHg 45%
    11:00 +21°C° 0 mm 2 mps 741 mmHg 45%
    12:00 +22°C° 0 mm 3 mps 740 mmHg 44%
    13:00 +22°C° 0 mm 3 mps 740 mmHg 44%
    14:00 +22°C° 0 mm 3 mps 740 mmHg 45%
    15:00 +21°C° 0 mm 3 mps 740 mmHg 46%
    16:00 +21°C° 0.1 mm 3 mps 740 mmHg 49%
    17:00 +20°C° 0.1 mm 3 mps 740 mmHg 53%
    18:00 +19°C° 0.1 mm 3 mps 740 mmHg 57%
    19:00 +18°C° 0 mm 3 mps 740 mmHg 59%
    20:00 +18°C° 0 mm 2 mps 741 mmHg 62%
    21:00 +17°C° 0 mm 2 mps 741 mmHg 64%
    22:00 +17°C° 0 mm 2 mps 741 mmHg 64%
    23:00 +17°C° 0 mm 2 mps 741 mmHg 64%
    Show more